[[{"header":{"parameterUnit":"m.s-1","parameterCategory":2,"la1":30.2991,"la2":30.254,"lo1":-89.0895,"lo2":-89.0444,"dy":0.0017,"dx":0.0017,"nx":28,"ny":28,"refTime":"2025-02-07T03:00:00:Z","depth":"0","parameterNumber":2,"parameterNumberName":"U-component_of_CURRENTS"},"data":[0,0,0,0,0,0,0,0,0,0,0,0,0,0,0,0,0,0,0,0,0,0,0,0,0,0,0,0,0,0,0,0,0,0,0,0,0,0,0,0,0,0,0,0,0,0,0,0,0,0,0,0,0,0,0,0,0,0,0.3748,0.3749,0,0.3779,0.3779,0.3779,0.3765,0.3765,0.3764,0.3764,0.3754,0.3754,0.3755,0,0,0,0,0,0,0,0,0,0,0,0,0,0.3696,0.3697,0.3748,0.3749,0.375,0.3779,0.3779,0.3779,0.3765,0.3765,0.3764,0.3763,0.3754,0.3754,0.3755,0,0,0,0,0,0,0,0,0,0,0,0,0,0.3719,0.3697,0.3748,0.3749,0.3749,0.3779,0.3779,0.3779,0.3765,0.3765,0.3764,0.3763,0.3754,0.3754,0.3755,0.3771,0,0,0.3755,0.3756,0,0,0,0,0,0,0,0,0.3718,0.372,0.3748,0.3749,0.3749,0.377,0.3757,0.3775,0.3765,0.3756,0.3764,0.3763,0.3758,0.3758,0.3762,0.377,0.377,0.3756,0.3756,0.3756,0.3756,0,0,0,0,0,0,0,0.3716,0.3719,0.3757,0.3749,0.375,0.3754,0.3755,0.3761,0.3758,0.3757,0.3756,0.3765,0.3758,0.3762,0.3761,0.377,0.3756,0.3756,0.3756,0.3756,0.3842,0.3844,0,0,0,0,0,0,0.3719,0.3718,0.3756,0.3759,0.3735,0.3755,0.3757,0.3762,0.3758,0.3759,0.3766,0.3764,0.3761,0.3761,0.3761,0.3812,0.3756,0.3756,0.3756,0.384,0.3842,0.3845,0,0,0,0,0,0,0.3717,0.3722,0.3755,0.3741,0.3746,0.3757,0.3762,0.3763,0.3773,0.3766,0.3765,0.3776,0.3761,0.3761,0.3783,0.381,0.3756,0.3756,0.3837,0.3841,0.3844,0.3893,0,0,0,0,0,0,0.3715,0.3721,0.3725,0.3742,0.3747,0.3784,0.3763,0.3764,0.378,0.3779,0.3775,0.3773,0.376,0.3783,0.3784,0.3809,0.3757,0.3835,0.3839,0.3843,0.3889,0.3898,0.3905,0,0,0,0,0,0.3713,0.3722,0.3725,0.373,0.3752,0.3785,0.3789,0.3791,0.3782,0.3795,0.3797,0.3773,0.3809,0.3785,0.3785,0.3812,0.3833,0.3838,0.3842,0.3885,0.3896,0.3905,0,0,0,0,0,0,0.3697,0.3722,0.3725,0.3739,0.3767,0.3784,0.3796,0.38,0.3812,0.3808,0.3796,0.3795,0.3828,0.3819,0.3793,0.3852,0.3819,0.3824,0.3852,0.3862,0.387,0.3885,0.3757,0,0,0,0,0,0.3698,0.3711,0.374,0.3752,0.3768,0.3784,0.3797,0.3803,0.3818,0.3821,0.3819,0.3826,0.3849,0.3853,0.3866,0.3892,0.3922,0.3913,0.3922,0.3928,0.3944,0.4016,0.4032,0.386,0.386,0.386,0,0,0.3694,0.3711,0.3717,0.3751,0.3768,0.3799,0.3789,0.3816,0.3842,0.3819,0.3846,0.3854,0.3865,0.3899,0.3913,0.3892,0.3998,0.3934,0.394,0.3952,0.4023,0.4039,0.4054,0.3863,0.3863,0.3862,0,0,0.3699,0.3712,0.3728,0.3757,0.3793,0.3811,0.3824,0.385,0.3862,0.3894,0.3893,0.3924,0.3937,0.3961,0.3973,0.4038,0.4042,0.4037,0.4083,0.4152,0.4167,0.418,0.4257,0.4276,0.4036,0.4036,0.4036,0,0.3693,0.3716,0.3739,0.377,0.3794,0.3821,0.385,0.3877,0.3906,0.3926,0.3908,0.3974,0.3973,0.4041,0.4061,0.4056,0.4097,0.4038,0.4163,0.4176,0.4189,0.4264,0.4285,0.4039,0.4038,0.4038,0.4038,0,0.3717,0.3738,0.3754,0.38,0.3833,0.3862,0.3908,0.3938,0.3952,0.3978,0.4042,0.4058,0.4097,0.4106,0.4099,0.4192,0.4195,0.4167,0.4134,0.4209,0.4284,0.4305,0.4043,0.4042,0.4041,0.404,0,0,0.3684,0.3754,0.3756,0.3783,0.3848,0.3876,0.3934,0.3994,0.4049,0.4073,0.4145,0.4181,0.4194,0.4212,0.4219,0.4275,0.4397,0.4258,0.426,0.4329,0.4567,0.4534,0.4553,0.4387,0.4391,0.4393,0.4589,0,0.369,0.3739,0.3778,0.3831,0.3861,0.3915,0.3972,0.4034,0.4092,0.4173,0.4211,0.4283,0.4235,0.4273,0.4319,0.4393,0.4452,0.4347,0.449,0.4495,0.445,0.4576,0.4425,0.4583,0.4609,0.4613,0.4615,0,0.3691,0.3726,0.3769,0.3849,0.3869,0.3908,0.4011,0.4073,0.4196,0.4252,0.4329,0.4371,0.4475,0.4418,0.4569,0.4505,0.4539,0.4581,0.4588,0.4554,0.45,0.4511,0.462,0.4481,0.4647,0.4645,0.4642,0,0.3641,0.3716,0.3745,0.3772,0.387,0.3901,0.396,0.4081,0.4169,0.4319,0.4422,0.4509,0.4608,0.4655,0.4723,0.4663,0.4895,0.4818,0.4821,0.482,0.4719,0.4702,0.4703,0.4921,0.492,0.492,0.4919,0,0.3622,0.3645,0.3722,0.3738,0.3798,0.3874,0.3972,0.4059,0.4222,0.4362,0.4457,0.4602,0.4676,0.4802,0.4805,0.4905,0.4961,0.4873,0.4881,0.4733,0.4716,0.4609,0.4534,0.4927,0.4925,0.4924,0.4923,0,0.3562,0.3607,0.3653,0.3742,0.3773,0.3816,0.3976,0.4076,0.4235,0.4435,0.4498,0.4723,0.4894,0.4959,0.509,0.5045,0.498,0.5118,0.4946,0.4929,0.4752,0.4685,0.4586,0.4443,0.5159,0.516,0.516,0,0.3535,0.3549,0.364,0.3684,0.3722,0.3809,0.3894,0.4055,0.418,0.4509,0.4611,0.4855,0.5004,0.5203,0.5178,0.5213,0.5025,0.5085,0.4923,0.4764,0.4697,0.4504,0.4374,0.4825,0.4822,0.4821,0.4819,0,0.3501,0.353,0.3581,0.3668,0.3743,0.3827,0.3951,0.4042,0.4271,0.4442,0.4684,0.4833,0.5071,0.5061,0.5138,0.5126,0.4839,0.5046,0.4926,0.4489,0.4236,0.4093,0.4684,0.4802,0.4804,0.4805,0.4806,0.4807,0.349,0.3518,0.3599,0.3667,0.3751,0.382,0.3844,0.4002,0.4153,0.4351,0.4588,0.4719,0.4884,0.4969,0.494,0.4788,0.4731,0.4628,0.4586,0.4425,0.4192,0.4755,0.4841,0.4842,0.4844,0.4845,0.4847,0,0.3498,0.3538,0.3607,0.3672,0.3709,0.3768,0.3874,0.3871,0.3963,0.4167,0.4312,0.4425,0.4481,0.4553,0.4522,0.4349,0.4131,0.4221,0.3902,0.3813,0.4377,0.4264,0.4171,0.4172,0.4172,0.4172,0.4172,0.4172,0.3518,0.3569,0.3586,0.361,0.3635,0.3612,0.362,0.3632,0.3706,0.3744,0.3766,0.3886,0.4135,0.4261,0.412,0.4017,0.3665,0.353,0.348,0.3873,0.3905,0.3936,0.3812,0.3625,0.3625,0.2763,0.2757,0.2752]},{"header":{"parameterUnit":"m.s-1","parameterCategory":2,"la1":30.2991,"la2":30.254,"lo1":-89.0895,"lo2":-89.0444,"dy":0.0017,"dx":0.0017,"nx":28,"ny":28,"refTime":"2025-02-07T03:00:00:Z","depth":"0","parameterNumber":3,"parameterNumberName":"V-component_of_CURRENTS"},"data":[0,0,0,0,0,0,0,0,0,0,0,0,0,0,0,0,0,0,0,0,0,0,0,0,0,0,0,0,0,0,0,0,0,0,0,0,0,0,0,0,0,0,0,0,0,0,0,0,0,0,0,0,0,0,0,0,0,0,0.0241,0.024,0,0.017,0.0169,0.0168,0.0116,0.0115,0.0115,0.0115,0.002,0.0018,0.0016,0,0,0,0,0,0,0,0,0,0,0,0,0,0.0268,0.0268,0.0241,0.024,0.024,0.0171,0.0169,0.0168,0.0116,0.0115,0.0115,0.0115,0.0021,0.0018,0.0016,0,0,0,0,0,0,0,0,0,0,0,0,0,0.0231,0.0268,0.0241,0.0207,0.0203,0.0171,0.0169,0.0168,0.0116,0.0115,0.0115,0.0115,0.0022,0.0019,0.0015,0.0003,0,0,0.0005,0.0003,0,0,0,0,0,0,0,0,0.0233,0.023,0.0212,0.0209,0.0205,0.0153,0.0144,0.0112,0.0116,0.0147,0.0115,0.0114,0.0064,0.0057,0.0042,-0.0002,-0.0006,0.0005,0.0002,0.0001,0.0,0,0,0,0,0,0,0,0.0236,0.0232,0.0211,0.0212,0.0207,0.0173,0.0168,0.0137,0.0107,0.0144,0.0141,0.0136,0.0062,0.0046,0.004,-0.0007,0.0005,0.0002,-0.0,-0.0002,-0.0057,-0.0056,0,0,0,0,0,0,0.0253,0.0235,0.0213,0.0209,0.0221,0.0174,0.0167,0.0169,0.0107,0.0098,0.0137,0.0134,0.0052,0.0044,0.0036,0.0043,0.0001,-0.0002,-0.0004,-0.0057,-0.0057,-0.0056,0,0,0,0,0,0,0.0253,0.0252,0.0216,0.0221,0.0215,0.0174,0.0175,0.0167,0.0156,0.0102,0.0092,0.0135,0.0051,0.0041,0.0021,0.0038,-0.0004,-0.0007,-0.0058,-0.0057,-0.0056,0.004,0,0,0,0,0,0,0.0255,0.0252,0.0257,0.0223,0.0215,0.0213,0.0176,0.0166,0.0155,0.0151,0.0098,0.0088,0.005,0.0027,0.0018,0.0032,-0.0009,-0.0059,-0.0058,-0.0057,0.0036,0.0044,0.005,0,0,0,0,0,0.0256,0.0274,0.0258,0.0255,0.0224,0.0214,0.0207,0.0174,0.0156,0.0161,0.0124,0.009,0.0027,0.0025,0.0014,0.0028,-0.0059,-0.0058,-0.0057,0.0032,0.0042,0.005,0,0,0,0,0,0,0.0288,0.0269,0.0251,0.0262,0.0244,0.0206,0.0206,0.0183,0.0157,0.0152,0.0098,0.0087,0.0073,0.0038,0.0037,0.0014,-0.0022,-0.0023,0.0049,0.0057,0.0065,0.0091,-0.0012,0,0,0,0,0,0.0298,0.0305,0.0279,0.0286,0.0282,0.0244,0.0234,0.0215,0.0188,0.0175,0.0138,0.0098,0.0069,0.0055,0.0021,0.0013,-0.002,0.0013,0.002,0.0027,0.004,0.0007,0.0013,-0.0052,-0.0052,-0.0052,0,0,0.0311,0.0302,0.0305,0.0293,0.0274,0.0285,0.0237,0.0234,0.0242,0.0169,0.0167,0.0122,0.0072,0.0061,0.0052,0.0036,0.0027,0.0029,0.0035,0.0045,0.0009,0.0015,0.0021,-0.0051,-0.0051,-0.0051,0,0,0.0351,0.0335,0.0358,0.035,0.0334,0.0316,0.0322,0.0291,0.0277,0.0266,0.0217,0.0189,0.0141,0.0114,0.0092,0.012,0.0066,0.0104,0.0165,0.0133,0.0138,0.0143,0.0111,0.0111,0.011,0.0111,0.0111,0,0.0367,0.0393,0.0362,0.0382,0.0389,0.034,0.0372,0.035,0.0317,0.0315,0.028,0.0217,0.0169,0.0164,0.0168,0.0138,0.0109,0.0138,0.0144,0.0148,0.015,0.0116,0.0116,0.0115,0.0115,0.0114,0.0114,0,0.0425,0.0444,0.0458,0.0471,0.0474,0.0491,0.0466,0.046,0.0432,0.0409,0.039,0.0321,0.0287,0.0262,0.0221,0.0221,0.019,0.0157,0.0127,0.0163,0.0124,0.0122,0.0122,0.012,0.0119,0.0118,0,0,0.0471,0.0497,0.0501,0.053,0.0526,0.0541,0.0552,0.0558,0.0583,0.0521,0.0547,0.0468,0.0424,0.0396,0.0337,0.0303,0.0287,0.0244,0.024,0.0223,0.0216,0.0206,0.0202,0.0253,0.0254,0.0254,0.0183,0,0.0528,0.0597,0.0591,0.0657,0.0695,0.0663,0.0685,0.0678,0.0662,0.0671,0.0589,0.0581,0.0478,0.0467,0.0415,0.0333,0.0285,0.0309,0.0176,0.0172,0.0166,0.0201,0.0215,0.0154,0.018,0.018,0.0179,0,0.059,0.0633,0.0711,0.0767,0.078,0.0805,0.0847,0.0866,0.0852,0.084,0.0804,0.0737,0.0682,0.0587,0.0448,0.0469,0.0348,0.0266,0.0261,0.0219,0.0158,0.012,0.0148,-0.0066,0.0175,0.0176,0.0176,0,0.0651,0.0719,0.0791,0.0807,0.0854,0.088,0.0906,0.0914,0.0967,0.0955,0.1,0.0886,0.0872,0.0702,0.0515,0.0483,0.0366,0.0299,0.0168,0.0165,0.0136,0.0132,-0.0048,0.0187,0.0187,0.0187,0.0187,0,0.072,0.0777,0.0825,0.0863,0.0959,0.0959,0.1061,0.1064,0.1114,0.1222,0.1099,0.1164,0.0902,0.0797,0.0581,0.0389,0.0409,0.0193,0.0153,0.017,0.0169,-0.0054,-0.0185,0.0184,0.0185,0.0185,0.0186,0,0.0777,0.0802,0.0894,0.0961,0.099,0.1061,0.1178,0.1262,0.129,0.1433,0.1442,0.1383,0.125,0.0975,0.0721,0.0515,0.0179,0.0214,0.0252,0.0219,-0.0108,-0.0233,-0.0458,-0.0539,0.0064,0.0063,0.0063,0,0.0814,0.0865,0.0972,0.1045,0.1079,0.119,0.1279,0.1339,0.1454,0.1596,0.1685,0.1597,0.1591,0.121,0.0787,0.0403,0.0171,0.0167,0.0098,-0.011,-0.0279,-0.0377,-0.0435,0.0089,0.0089,0.0089,0.0089,0,0.0893,0.0924,0.1005,0.1152,0.1259,0.1399,0.1534,0.165,0.1767,0.1913,0.2082,0.2093,0.1733,0.1363,0.0816,0.0539,0.0023,0.0152,-0.0076,-0.0277,-0.0382,-0.0482,0.0113,0.0087,0.0087,0.0087,0.0087,0.0087,0.0955,0.1029,0.1136,0.1277,0.1411,0.1589,0.1728,0.191,0.213,0.2372,0.2369,0.2449,0.1887,0.1151,0.0745,0.0005,-0.0011,-0.0213,-0.0347,-0.0426,-0.0506,0.0093,0.0031,0.0031,0.0031,0.0031,0.003,0,0.1037,0.1123,0.1261,0.1432,0.1593,0.1646,0.1892,0.2063,0.2353,0.257,0.273,0.2485,0.182,0.1099,0.0099,-0.0395,-0.058,-0.0672,-0.0824,-0.0859,-0.0335,-0.0335,-0.0462,-0.0462,-0.0461,-0.0461,-0.0461,-0.0461,0.1086,0.1221,0.1289,0.1551,0.1681,0.1912,0.2061,0.2336,0.2535,0.2807,0.2849,0.2821,0.2222,0.0508,-0.0629,-0.0875,-0.1222,-0.1319,-0.1474,-0.1147,-0.1115,-0.1084,-0.1114,-0.1403,-0.1404,-0.192,-0.1926,-0.193]}],[{"header":{"parameterUnit":"m.s-1","parameterCategory":2,"la1":30.2991,"la2":30.254,"lo1":-89.0895,"lo2":-89.0444,"dy":0.0017,"dx":0.0017,"nx":28,"ny":28,"refTime":"2025-02-07T03:00:00:Z","depth":"2","parameterNumber":2,"parameterNumberName":"U-component_of_CURRENTS"},"data":[0,0,0,0,0,0,0,0,0,0,0,0,0,0,0,0,0,0,0,0,0,0,0,0,0,0,0,0,0,0,0,0,0,0,0,0,0,0,0,0,0,0,0,0,0,0,0,0,0,0,0,0,0,0,0,0,0,0,0.3144,0.3145,0,0.3184,0.3184,0.3184,0.3188,0.3188,0.3187,0.3187,0.32,0.32,0.3201,0,0,0,0,0,0,0,0,0,0,0,0,0,0.308,0.308,0.3144,0.3145,0.3146,0.3184,0.3184,0.3184,0.3188,0.3187,0.3187,0.3187,0.32,0.32,0.3201,0,0,0,0,0,0,0,0,0,0,0,0,0,0.3109,0.3081,0.3144,0.3154,0.3156,0.3183,0.3184,0.3184,0.3188,0.3187,0.3187,0.3187,0.32,0.32,0.3201,0.3209,0,0,0.3203,0.3203,0,0,0,0,0,0,0,0,0.3108,0.3111,0.3152,0.3154,0.3156,0.3183,0.3166,0.3192,0.3188,0.3172,0.3187,0.3187,0.3194,0.3195,0.3199,0.321,0.3211,0.3203,0.3204,0.3204,0.3204,0,0,0,0,0,0,0,0.3105,0.311,0.3157,0.3153,0.3155,0.316,0.3163,0.3171,0.3181,0.3174,0.3175,0.3184,0.3194,0.3198,0.3199,0.3211,0.3203,0.3204,0.3204,0.3204,0.3295,0.3297,0,0,0,0,0,0,0.3107,0.3108,0.3156,0.3158,0.3134,0.3161,0.3165,0.3172,0.3182,0.3184,0.3184,0.3184,0.3197,0.3199,0.32,0.326,0.3204,0.3205,0.3205,0.3293,0.3296,0.3298,0,0,0,0,0,0,0.3105,0.3111,0.3154,0.3136,0.3143,0.3163,0.317,0.3173,0.3192,0.319,0.3192,0.3202,0.3197,0.3199,0.3228,0.3258,0.3205,0.3205,0.3291,0.3294,0.3297,0.3348,0,0,0,0,0,0,0.3103,0.311,0.3118,0.3136,0.3144,0.3184,0.3171,0.3174,0.3198,0.3199,0.3206,0.3206,0.3197,0.3227,0.3229,0.3258,0.3206,0.3288,0.3292,0.3296,0.3344,0.3353,0.336,0,0,0,0,0,0.3101,0.3112,0.3118,0.3125,0.3154,0.3186,0.319,0.3201,0.3199,0.3215,0.3224,0.3207,0.3252,0.3229,0.3231,0.3261,0.3287,0.3291,0.3296,0.3341,0.3351,0.336,0,0,0,0,0,0,0.3087,0.3115,0.3121,0.3141,0.3169,0.3188,0.3204,0.3213,0.3232,0.3233,0.3227,0.3229,0.3269,0.3262,0.3237,0.3302,0.3269,0.3274,0.3303,0.3312,0.332,0.3333,0.3207,0,0,0,0,0,0.3089,0.3106,0.3135,0.3153,0.3169,0.319,0.3205,0.3216,0.3235,0.3243,0.3249,0.3263,0.3287,0.3296,0.3312,0.3342,0.3364,0.3366,0.3374,0.338,0.3394,0.3457,0.3471,0.3313,0.3312,0.3312,0,0,0.3087,0.3107,0.3116,0.3152,0.3172,0.3203,0.3198,0.323,0.3258,0.3242,0.3279,0.3291,0.3303,0.3341,0.3359,0.3339,0.344,0.3386,0.3391,0.3402,0.3463,0.3478,0.3492,0.3316,0.3315,0.3315,0,0,0.3095,0.3114,0.3132,0.3161,0.3202,0.3219,0.3234,0.3265,0.3284,0.3321,0.3325,0.336,0.3381,0.3405,0.3417,0.3481,0.3483,0.3485,0.353,0.3591,0.3604,0.3616,0.3674,0.3691,0.3485,0.3485,0.3485,0,0.3092,0.3118,0.3144,0.3175,0.32,0.3231,0.326,0.329,0.3327,0.335,0.3341,0.3411,0.3416,0.348,0.3503,0.3499,0.3533,0.3488,0.3601,0.3613,0.3625,0.3681,0.3699,0.3488,0.3488,0.3487,0.3487,0,0.3115,0.3141,0.3158,0.3206,0.3239,0.327,0.3317,0.3353,0.3376,0.3403,0.3472,0.3493,0.3535,0.3546,0.3542,0.363,0.3628,0.3605,0.3573,0.3644,0.3699,0.3716,0.3492,0.3491,0.3491,0.349,0,0,0.3086,0.3158,0.3163,0.3188,0.3257,0.3282,0.3346,0.3405,0.3457,0.3495,0.3562,0.3608,0.3626,0.3644,0.3654,0.3706,0.3813,0.3693,0.3694,0.3745,0.3957,0.3905,0.3919,0.381,0.3813,0.3815,0.3966,0,0.3093,0.3142,0.3183,0.3235,0.3264,0.3322,0.3381,0.3443,0.3502,0.3577,0.3622,0.3691,0.3663,0.3701,0.3747,0.3808,0.3861,0.3775,0.3886,0.389,0.383,0.3938,0.361,0.3713,0.3983,0.3986,0.3988,0,0.3094,0.3129,0.3175,0.3251,0.3271,0.3313,0.3413,0.3475,0.3591,0.3644,0.3721,0.3765,0.3865,0.3824,0.3959,0.3908,0.3939,0.3973,0.3979,0.3924,0.387,0.3685,0.3734,0.4018,0.4015,0.4013,0.4011,0,0.3045,0.3118,0.315,0.3176,0.3273,0.3311,0.3371,0.3488,0.356,0.3703,0.3781,0.388,0.3963,0.4019,0.4084,0.4038,0.4229,0.4167,0.4149,0.4146,0.3886,0.3855,0.426,0.426,0.4259,0.4259,0.4258,0,0.3024,0.3049,0.313,0.3147,0.3204,0.3286,0.3373,0.3459,0.3601,0.3699,0.3813,0.3913,0.402,0.4129,0.4147,0.4222,0.4282,0.4192,0.4194,0.3897,0.3866,0.4133,0.4116,0.4264,0.4263,0.4262,0.4261,0,0.2965,0.3015,0.3057,0.315,0.3181,0.3225,0.3362,0.3433,0.3587,0.3728,0.3785,0.3982,0.4134,0.4227,0.4355,0.4319,0.4382,0.4381,0.4032,0.399,0.4239,0.4223,0.4385,0.4385,0.4385,0.4384,0.4384,0,0.2938,0.2954,0.3041,0.3066,0.3107,0.3187,0.3246,0.3402,0.3486,0.3752,0.381,0.4033,0.4142,0.4334,0.4331,0.4386,0.4429,0.4102,0.3946,0.4274,0.4259,0.4243,0.4228,0.3626,0.362,0.3614,0.361,0,0.2892,0.2924,0.2959,0.3009,0.306,0.3119,0.3216,0.327,0.3466,0.3597,0.3771,0.3893,0.411,0.4035,0.4141,0.4111,0.4066,0.3999,0.4451,0.3648,0.357,0.3551,0.3559,0.3564,0.3568,0.3572,0.3574,0.3576,0.2855,0.2862,0.2906,0.2941,0.2994,0.3018,0.3019,0.3131,0.3229,0.3373,0.3588,0.367,0.3773,0.377,0.3683,0.3622,0.3891,0.3699,0.3709,0.3727,0.3615,0.3541,0.3509,0.3513,0.3516,0.352,0.3523,0,0.2791,0.2806,0.2835,0.2852,0.284,0.2917,0.297,0.2931,0.2964,0.3152,0.3272,0.3101,0.3109,0.3199,0.3043,0.3072,0.2977,0.294,0.2771,0.2824,0.287,0.2706,0.2363,0.2359,0.2355,0.2351,0,0,0.2759,0.274,0.2741,0.2682,0.2693,0.2632,0.2622,0.2591,0.2657,0.2658,0.2698,0.2987,0.3131,0.2701,0.267,0.248,0.2615,0.2386,0.3331,0.3186,0.3225,0.3344,0.3159,0,0,0,0,0]},{"header":{"parameterUnit":"m.s-1","parameterCategory":2,"la1":30.2991,"la2":30.254,"lo1":-89.0895,"lo2":-89.0444,"dy":0.0017,"dx":0.0017,"nx":28,"ny":28,"refTime":"2025-02-07T03:00:00:Z","depth":"2","parameterNumber":3,"parameterNumberName":"V-component_of_CURRENTS"},"data":[0,0,0,0,0,0,0,0,0,0,0,0,0,0,0,0,0,0,0,0,0,0,0,0,0,0,0,0,0,0,0,0,0,0,0,0,0,0,0,0,0,0,0,0,0,0,0,0,0,0,0,0,0,0,0,0,0,0,0.0095,0.0095,0,0.0032,0.0031,0.003,-0.0014,-0.0015,-0.0015,-0.0015,-0.0099,-0.0101,-0.0104,0,0,0,0,0,0,0,0,0,0,0,0,0,0.0121,0.0121,0.0095,0.0094,0.0094,0.0032,0.0031,0.003,-0.0014,-0.0015,-0.0015,-0.0015,-0.0099,-0.0101,-0.0104,0,0,0,0,0,0,0,0,0,0,0,0,0,0.0088,0.0121,0.0095,0.0065,0.0062,0.0032,0.0031,0.003,-0.0014,-0.0015,-0.0015,-0.0015,-0.0098,-0.0101,-0.0104,-0.0117,0,0,-0.0113,-0.0115,0,0,0,0,0,0,0,0,0.009,0.0087,0.007,0.0067,0.0064,0.0018,0.0009,-0.002,-0.0014,0.0013,-0.0015,-0.0015,-0.0061,-0.0067,-0.008,-0.0121,-0.0124,-0.0114,-0.0116,-0.0117,-0.0118,0,0,0,0,0,0,0,0.0092,0.0089,0.0068,0.007,0.0066,0.0036,0.0031,0.0003,-0.0023,0.0011,0.0008,0.0003,-0.0063,-0.0077,-0.0083,-0.0125,-0.0114,-0.0116,-0.0118,-0.0119,-0.0172,-0.0171,0,0,0,0,0,0,0.0106,0.0091,0.0071,0.0067,0.0078,0.0036,0.0031,0.0032,-0.0022,-0.003,0.0004,0.0001,-0.0072,-0.0079,-0.0086,-0.0081,-0.0117,-0.012,-0.0122,-0.0172,-0.0172,-0.0171,0,0,0,0,0,0,0.0107,0.0105,0.0073,0.0078,0.0072,0.0037,0.0037,0.003,0.0021,-0.0027,-0.0036,0.0002,-0.0072,-0.0081,-0.01,-0.0086,-0.0121,-0.0124,-0.0173,-0.0172,-0.0171,-0.0087,0,0,0,0,0,0,0.0108,0.0106,0.0111,0.008,0.0073,0.0069,0.0038,0.003,0.002,0.0016,-0.0031,-0.004,-0.0073,-0.0095,-0.0103,-0.0091,-0.0126,-0.0173,-0.0173,-0.0172,-0.009,-0.0084,-0.0078,0,0,0,0,0,0.011,0.0125,0.0112,0.0109,0.0081,0.007,0.0064,0.0036,0.002,0.0024,-0.0008,-0.0038,-0.0095,-0.0097,-0.0106,-0.0095,-0.0174,-0.0173,-0.0172,-0.0093,-0.0085,-0.0078,0,0,0,0,0,0,0.0139,0.0121,0.0106,0.0115,0.0098,0.0064,0.0064,0.0044,0.002,0.0017,-0.0031,-0.0041,-0.0054,-0.0086,-0.0086,-0.0108,-0.014,-0.0141,-0.0077,-0.007,-0.0064,-0.0041,-0.0129,0,0,0,0,0,0.0148,0.0154,0.013,0.0136,0.0132,0.0098,0.0089,0.0072,0.0048,0.0037,0.0003,-0.0032,-0.0059,-0.0072,-0.0102,-0.0111,-0.0145,-0.0112,-0.0105,-0.0099,-0.0088,-0.0125,-0.0121,-0.0168,-0.0168,-0.0168,0,0,0.016,0.0151,0.0154,0.0143,0.0125,0.0134,0.0092,0.0089,0.0095,0.0031,0.0029,-0.0011,-0.0057,-0.0067,-0.0076,-0.0091,-0.0104,-0.0098,-0.0093,-0.0084,-0.0124,-0.0119,-0.0115,-0.0167,-0.0167,-0.0167,0,0,0.0195,0.0181,0.0201,0.0193,0.0179,0.0163,0.0168,0.014,0.0127,0.0117,0.0073,0.0047,0.0004,-0.0022,-0.0042,-0.0019,-0.007,-0.0033,0.002,-0.0016,-0.0013,-0.001,-0.0046,-0.0047,-0.0028,-0.0028,-0.0028,0,0.021,0.0232,0.0204,0.0222,0.0228,0.0184,0.0212,0.0192,0.0161,0.0158,0.0129,0.0069,0.0028,0.0018,0.0024,-0.0003,-0.0034,-0.0003,-0.0007,-0.0005,-0.0003,-0.0041,-0.0043,-0.0024,-0.0024,-0.0024,-0.0025,0,0.026,0.0277,0.0289,0.03,0.0302,0.0317,0.0295,0.0289,0.0264,0.0242,0.0221,0.0159,0.0127,0.0105,0.007,0.0064,0.0035,0.0006,-0.0022,0.0007,-0.0036,-0.0039,-0.0017,-0.0019,-0.002,-0.0021,0,0,0.03,0.0322,0.0327,0.0351,0.0348,0.036,0.0371,0.0374,0.0391,0.0337,0.035,0.0285,0.0245,0.022,0.0167,0.013,0.0108,0.0079,0.0075,0.0052,0.0027,-0.0,-0.0008,0.0076,0.0076,0.0076,-0.0007,0,0.0349,0.041,0.0404,0.0462,0.0495,0.0467,0.0485,0.0478,0.046,0.0458,0.0383,0.037,0.0292,0.0279,0.023,0.0146,0.0102,0.0133,-0.0005,-0.0009,-0.003,-0.0012,0.0018,-0.0054,-0.0011,-0.0012,-0.0012,0,0.0403,0.044,0.0509,0.0556,0.0567,0.059,0.0621,0.0636,0.0614,0.0598,0.0562,0.05,0.0444,0.0368,0.0234,0.0258,0.0153,0.0073,0.0067,0.0013,-0.0042,-0.0077,-0.0063,-0.0019,-0.0019,-0.0018,-0.0018,0,0.0455,0.0515,0.0578,0.0592,0.0632,0.0654,0.0675,0.0677,0.0715,0.0692,0.0714,0.0615,0.0587,0.0442,0.0273,0.0254,0.0119,0.0071,-0.0057,-0.0061,-0.0077,-0.0081,-0.003,-0.003,-0.003,-0.003,-0.003,0,0.0515,0.0564,0.0607,0.064,0.0722,0.0722,0.0803,0.0803,0.0832,0.0903,0.0796,0.0818,0.0604,0.0497,0.0318,0.013,0.0151,-0.0041,-0.008,-0.0048,-0.0048,-0.0052,-0.0054,-0.0033,-0.0032,-0.0032,-0.0031,0,0.0563,0.0586,0.0665,0.0723,0.0749,0.0809,0.0902,0.0965,0.0973,0.1063,0.1064,0.0979,0.0841,0.0616,0.0386,0.0211,0.0017,-0.0062,-0.0009,-0.0041,-0.0154,-0.015,-0.0211,-0.0213,-0.0214,-0.0215,-0.0216,0,0.0594,0.0638,0.0733,0.0793,0.0824,0.0916,0.0989,0.1032,0.1117,0.1172,0.1227,0.1117,0.1065,0.0712,0.0378,0.0062,0.0017,-0.0129,-0.0167,-0.0138,-0.0171,-0.0165,-0.016,-0.0159,-0.016,-0.016,-0.016,0,0.0658,0.0685,0.0754,0.088,0.0969,0.1088,0.1196,0.1283,0.1355,0.1425,0.1489,0.1446,0.112,0.0796,0.0353,0.0138,-0.0079,-0.0146,-0.0123,-0.0115,-0.0095,-0.0125,-0.0121,-0.0163,-0.0163,-0.0162,-0.0162,-0.0162,0.0705,0.0766,0.0856,0.0979,0.1091,0.124,0.1353,0.1476,0.1615,0.1733,0.1682,0.1635,0.1257,0.0696,0.0303,-0.0107,-0.0089,-0.0237,-0.0234,-0.0231,-0.0207,-0.019,-0.0271,-0.0272,-0.0272,-0.0272,-0.0272,0,0.0769,0.084,0.0953,0.1099,0.1231,0.1285,0.1483,0.1595,0.1769,0.1862,0.1909,0.1561,0.1192,0.0762,0.0148,-0.0219,-0.0241,-0.0329,-0.028,-0.0274,-0.027,-0.0246,-0.0323,-0.0324,-0.0325,-0.0326,0,0,0.0803,0.0914,0.0971,0.1186,0.1299,0.1492,0.1614,0.1772,0.188,0.1963,0.1944,0.1873,0.1335,0.0885,0.0379,0.0024,-0.0035,-0.0039,0.0043,0.0167,0.0176,-0.0176,-0.0129,0,0,0,0,0]}],[{"header":{"parameterUnit":"m.s-1","parameterCategory":2,"la1":30.2991,"la2":30.254,"lo1":-89.0895,"lo2":-89.0444,"dy":0.0017,"dx":0.0017,"nx":28,"ny":28,"refTime":"2025-02-07T03:00:00:Z","depth":"4","parameterNumber":2,"parameterNumberName":"U-component_of_CURRENTS"},"data":[0,0,0,0,0,0,0,0,0,0,0,0,0,0,0,0,0,0,0,0,0,0,0,0,0,0,0,0,0,0,0,0,0,0,0,0,0,0,0,0,0,0,0,0,0,0,0,0,0,0,0,0,0,0,0,0,0,0,0.2079,0.208,0,0.2161,0.2162,0.2163,0.2232,0.2233,0.2234,0.2235,0.233,0.2331,0.2333,0,0,0,0,0,0,0,0,0,0,0,0,0,0.1974,0.1976,0.2079,0.2081,0.2082,0.2161,0.2162,0.2163,0.2231,0.2233,0.2234,0.2235,0.2329,0.2331,0.2333,0,0,0,0,0,0,0,0,0,0,0,0,0,0.2032,0.1976,0.2079,0.2127,0.2133,0.2161,0.2162,0.2163,0.2231,0.2233,0.2234,0.2236,0.2329,0.2331,0.2333,0.2319,0,0,0.2341,0.2342,0,0,0,0,0,0,0,0,0.2029,0.2036,0.2119,0.2124,0.213,0.219,0.216,0.2217,0.2231,0.2191,0.2235,0.2236,0.2285,0.2291,0.2299,0.2324,0.2328,0.2341,0.2343,0.2344,0.2344,0,0,0,0,0,0,0,0.2025,0.2032,0.2109,0.212,0.2127,0.2142,0.2152,0.2171,0.2227,0.2195,0.2201,0.2213,0.2288,0.2297,0.2302,0.2329,0.2341,0.2343,0.2345,0.2346,0.2487,0.2489,0,0,0,0,0,0,0.2018,0.2029,0.2107,0.2112,0.2085,0.2143,0.2154,0.2167,0.2227,0.2238,0.2212,0.2216,0.2292,0.2299,0.2306,0.2415,0.2344,0.2346,0.2347,0.2485,0.2488,0.249,0,0,0,0,0,0,0.2016,0.2024,0.2104,0.2074,0.2086,0.2144,0.2158,0.2168,0.2224,0.224,0.2251,0.2263,0.2293,0.2302,0.2368,0.2415,0.2347,0.2349,0.2482,0.2486,0.2489,0.2554,0,0,0,0,0,0,0.2012,0.2023,0.2051,0.2074,0.2087,0.2151,0.2157,0.2169,0.2228,0.2236,0.2287,0.2295,0.2295,0.2365,0.2371,0.2417,0.2351,0.2479,0.2484,0.2488,0.2549,0.256,0.2569,0,0,0,0,0,0.2008,0.2033,0.2052,0.2063,0.2117,0.2152,0.2161,0.2205,0.2229,0.226,0.2301,0.2296,0.2397,0.2369,0.2375,0.2423,0.2477,0.2483,0.2488,0.2545,0.2558,0.2568,0,0,0,0,0,0,0.2004,0.2043,0.2065,0.2102,0.2141,0.2166,0.2204,0.223,0.2285,0.2307,0.232,0.2331,0.2407,0.2407,0.2376,0.2478,0.2438,0.2444,0.2479,0.2491,0.2501,0.2504,0.2353,0,0,0,0,0,0.2015,0.2049,0.2082,0.212,0.2142,0.2182,0.2211,0.224,0.2281,0.2309,0.2344,0.2385,0.2423,0.2453,0.2482,0.2535,0.2544,0.2572,0.2582,0.259,0.2599,0.2653,0.2668,0.2507,0.2507,0.2507,0,0,0.2024,0.2052,0.2073,0.2123,0.2158,0.2195,0.2204,0.2261,0.2305,0.2309,0.2393,0.2422,0.2446,0.2509,0.2543,0.2522,0.2643,0.2596,0.2603,0.2608,0.266,0.2676,0.2689,0.2511,0.251,0.2509,0,0,0.2044,0.2087,0.2118,0.2154,0.2215,0.2236,0.2263,0.2315,0.2359,0.2428,0.2448,0.2509,0.2565,0.2593,0.2611,0.2691,0.2692,0.2709,0.2762,0.2815,0.2828,0.284,0.2879,0.2894,0.2714,0.2714,0.2714,0,0.2059,0.2097,0.2135,0.2173,0.2209,0.226,0.23,0.2346,0.2417,0.2456,0.247,0.258,0.2602,0.2676,0.271,0.2713,0.2741,0.2712,0.2826,0.2838,0.2849,0.2886,0.2902,0.2718,0.2717,0.2717,0.2717,0,0.2086,0.2136,0.216,0.2223,0.2267,0.2314,0.2372,0.2435,0.2493,0.2531,0.2634,0.2674,0.2738,0.276,0.2762,0.2857,0.2851,0.283,0.2792,0.2869,0.2903,0.2918,0.2723,0.2722,0.2721,0.272,0,0,0.2064,0.216,0.2173,0.2213,0.2301,0.2332,0.2419,0.2495,0.2562,0.264,0.2724,0.28,0.2834,0.2858,0.288,0.2931,0.3034,0.2925,0.2926,0.2956,0.3156,0.2959,0.2956,0.3039,0.3042,0.3044,0.315,0,0.2077,0.2146,0.2196,0.2274,0.2312,0.2391,0.2463,0.2546,0.2626,0.272,0.2785,0.2876,0.2868,0.2924,0.2972,0.3027,0.3076,0.3007,0.3084,0.3086,0.2895,0.2967,0.3053,0.3161,0.3165,0.3167,0.3169,0,0.2076,0.2126,0.2199,0.2301,0.2328,0.2391,0.2517,0.2591,0.2724,0.2793,0.289,0.2947,0.3056,0.3033,0.3158,0.312,0.3149,0.3175,0.3179,0.298,0.2916,0.3069,0.3195,0.3193,0.3191,0.3189,0.3188,0,0.2018,0.2123,0.2183,0.2219,0.2343,0.2408,0.2486,0.2619,0.2696,0.2859,0.2936,0.3051,0.314,0.3198,0.3258,0.323,0.3378,0.3335,0.3181,0.3168,0.3284,0.327,0.3415,0.3415,0.3415,0.3414,0.3414,0,0.1985,0.2039,0.2171,0.2203,0.229,0.2393,0.2505,0.2605,0.2755,0.284,0.2977,0.3055,0.3192,0.3281,0.3304,0.3287,0.3416,0.3202,0.3184,0.331,0.3297,0.3294,0.3279,0.3418,0.3418,0.3417,0.3416,0,0.1907,0.1994,0.2072,0.2215,0.2266,0.2335,0.2504,0.2572,0.2742,0.2863,0.2926,0.3104,0.3214,0.3314,0.3426,0.3332,0.3346,0.3307,0.3455,0.3441,0.309,0.3077,0.3134,0.3128,0.3123,0.3119,0.3115,0,0.1869,0.1904,0.2063,0.2108,0.2182,0.23,0.237,0.2548,0.2617,0.2855,0.2889,0.3076,0.3168,0.3166,0.3284,0.3318,0.3278,0.3258,0.3146,0.3085,0.3064,0.3059,0.3053,0.3107,0.3106,0.3105,0.3103,0,0.1793,0.1872,0.1933,0.2027,0.2112,0.2185,0.2304,0.2338,0.2533,0.2716,0.2785,0.2849,0.2967,0.3038,0.3098,0.311,0.3252,0.3204,0.3213,0.3108,0.3053,0.3035,0.3036,0.3086,0.3088,0.309,0.3091,0,0.1742,0.1762,0.1851,0.1915,0.201,0.203,0.2113,0.2187,0.2278,0.2533,0.2551,0.2748,0.2928,0.2932,0.2983,0.2988,0.2932,0.2818,0.2846,0.2867,0.273,0.2618,0.2511,0,0,0,0,0,0.1674,0.1672,0.1724,0.1771,0.1856,0.1908,0.2043,0.2128,0.2319,0.2301,0.2417,0.2511,0.2591,0.2696,0.2648,0.2871,0.2948,0.2802,0.283,0.2987,0.3008,0.287,0,0,0,0,0,0,0.1621,0.1667,0.1672,0.1634,0.1639,0.1705,0.1782,0.1913,0.1912,0.2125,0.2184,0.2352,0.2474,0.2593,0.2598,0.2631,0.2594,0.2933,0.2926,0.2976,0.2994,0.3011,0.2876,0,0,0,0,0]},{"header":{"parameterUnit":"m.s-1","parameterCategory":2,"la1":30.2991,"la2":30.254,"lo1":-89.0895,"lo2":-89.0444,"dy":0.0017,"dx":0.0017,"nx":28,"ny":28,"refTime":"2025-02-07T03:00:00:Z","depth":"4","parameterNumber":3,"parameterNumberName":"V-component_of_CURRENTS"},"data":[0,0,0,0,0,0,0,0,0,0,0,0,0,0,0,0,0,0,0,0,0,0,0,0,0,0,0,0,0,0,0,0,0,0,0,0,0,0,0,0,0,0,0,0,0,0,0,0,0,0,0,0,0,0,0,0,0,0,0.0062,0.0061,0,0.0018,0.0017,0.0016,-0.0016,-0.0016,-0.0016,-0.0016,-0.0082,-0.0083,-0.0085,0,0,0,0,0,0,0,0,0,0,0,0,0,0.008,0.008,0.0062,0.0061,0.0061,0.0018,0.0017,0.0016,-0.0016,-0.0016,-0.0016,-0.0016,-0.0081,-0.0083,-0.0085,0,0,0,0,0,0,0,0,0,0,0,0,0,0.0056,0.008,0.0062,0.0041,0.0038,0.0018,0.0017,0.0016,-0.0015,-0.0016,-0.0016,-0.0016,-0.0081,-0.0083,-0.0085,-0.0095,0,0,-0.0093,-0.0094,0,0,0,0,0,0,0,0,0.0058,0.0056,0.0044,0.0042,0.004,0.0007,-0.0001,-0.0022,-0.0015,0.0004,-0.0016,-0.0016,-0.0053,-0.0058,-0.0067,-0.0099,-0.0101,-0.0093,-0.0094,-0.0095,-0.0096,0,0,0,0,0,0,0,0.006,0.0057,0.0043,0.0044,0.0041,0.002,0.0017,-0.0005,-0.0024,0.0002,-0.0,-0.0003,-0.0055,-0.0065,-0.0069,-0.0102,-0.0093,-0.0095,-0.0097,-0.0097,-0.0141,-0.0141,0,0,0,0,0,0,0.007,0.0059,0.0045,0.0042,0.005,0.002,0.0016,0.0017,-0.0023,-0.0029,-0.0003,-0.0004,-0.006,-0.0066,-0.0071,-0.0069,-0.0095,-0.0098,-0.0099,-0.0142,-0.0141,-0.0141,0,0,0,0,0,0,0.007,0.0069,0.0046,0.005,0.0046,0.0021,0.0021,0.0016,0.001,-0.0027,-0.0033,-0.0003,-0.0061,-0.0068,-0.0083,-0.0072,-0.0099,-0.0101,-0.0142,-0.0142,-0.0141,-0.0075,0,0,0,0,0,0,0.0071,0.007,0.0074,0.0051,0.0046,0.0044,0.0021,0.0016,0.0009,0.0006,-0.003,-0.0036,-0.0061,-0.0079,-0.0085,-0.0076,-0.0103,-0.0142,-0.0142,-0.0141,-0.0078,-0.0072,-0.0068,0,0,0,0,0,0.0072,0.0083,0.0075,0.0073,0.0053,0.0044,0.004,0.002,0.0009,0.0012,-0.0012,-0.0035,-0.008,-0.008,-0.0088,-0.0079,-0.0143,-0.0142,-0.0141,-0.008,-0.0073,-0.0068,0,0,0,0,0,0,0.0093,0.008,0.007,0.0077,0.0065,0.004,0.0041,0.0026,0.0008,0.0007,-0.003,-0.0038,-0.0049,-0.0074,-0.0073,-0.0092,-0.0116,-0.0117,-0.0066,-0.0061,-0.0056,-0.0037,-0.0105,0,0,0,0,0,0.01,0.0105,0.0088,0.0093,0.009,0.0066,0.0059,0.0047,0.0029,0.0021,-0.0005,-0.0032,-0.0053,-0.0063,-0.0087,-0.0095,-0.0125,-0.0096,-0.0091,-0.0086,-0.0077,-0.0114,-0.0111,-0.0139,-0.0139,-0.0139,0,0,0.0109,0.0103,0.0106,0.0098,0.0086,0.0093,0.0061,0.0059,0.0065,0.0016,0.0016,-0.0016,-0.0052,-0.006,-0.0068,-0.0079,-0.0095,-0.0086,-0.0082,-0.0074,-0.0113,-0.011,-0.0108,-0.0139,-0.0139,-0.0139,0,0,0.0135,0.0126,0.0141,0.0136,0.0126,0.0115,0.0118,0.0098,0.0089,0.0082,0.0049,0.0027,-0.0005,-0.0027,-0.0042,-0.0026,-0.007,-0.0037,0.0004,-0.0031,-0.0029,-0.0027,-0.0064,-0.0066,-0.0033,-0.0033,-0.0033,0,0.0147,0.0163,0.0143,0.0157,0.0163,0.0131,0.0152,0.0138,0.0115,0.0113,0.0091,0.0044,0.0013,0.0003,0.0008,-0.0013,-0.0043,-0.0012,-0.0024,-0.0023,-0.0023,-0.006,-0.0063,-0.003,-0.003,-0.0031,-0.0031,0,0.0183,0.0197,0.0206,0.0217,0.022,0.0232,0.0216,0.0212,0.0195,0.0178,0.0161,0.0113,0.0088,0.0069,0.0044,0.0034,0.0009,-0.0014,-0.0035,-0.0016,-0.0057,-0.0061,-0.0025,-0.0026,-0.0027,-0.0028,0,0,0.0209,0.023,0.0234,0.0254,0.0255,0.0265,0.0275,0.0277,0.029,0.025,0.0257,0.0209,0.0179,0.0159,0.0117,0.0083,0.0057,0.0042,0.0039,0.0013,-0.0024,-0.0041,-0.0048,0.003,0.003,0.003,-0.0054,0,0.0246,0.0292,0.0291,0.0338,0.0363,0.0346,0.0362,0.0358,0.0344,0.034,0.0281,0.0271,0.0214,0.0205,0.0162,0.0087,0.0048,0.0082,-0.0045,-0.0048,-0.006,-0.0052,0.0029,-0.0058,-0.0059,-0.006,-0.0061,0,0.0282,0.0312,0.0367,0.0408,0.0417,0.0439,0.0466,0.0478,0.046,0.0448,0.0418,0.037,0.0321,0.0267,0.0146,0.017,0.0083,0.0015,0.001,-0.003,-0.0073,-0.0083,-0.007,-0.0069,-0.0068,-0.0068,-0.0067,0,0.0316,0.0366,0.0417,0.043,0.0466,0.0489,0.0509,0.0512,0.0541,0.0522,0.0535,0.0454,0.0426,0.0307,0.0164,0.0156,0.0022,-0.0008,-0.0108,-0.0111,-0.01,-0.0101,-0.0095,-0.0095,-0.0095,-0.0095,-0.0095,0,0.0354,0.0395,0.0439,0.0465,0.0534,0.054,0.0607,0.0609,0.0631,0.0678,0.0599,0.0602,0.0435,0.0335,0.0193,0.0032,0.0041,-0.0097,-0.0131,-0.0071,-0.0068,-0.0104,-0.0104,-0.0098,-0.0097,-0.0097,-0.0096,0,0.038,0.0406,0.047,0.0525,0.0552,0.0602,0.0686,0.0734,0.0741,0.0798,0.0799,0.0717,0.0585,0.0406,0.021,0.0082,-0.0079,-0.0141,-0.0058,-0.0087,-0.0197,-0.0192,-0.0256,-0.0257,-0.0258,-0.0259,-0.026,0,0.0396,0.0431,0.0519,0.0572,0.0603,0.0683,0.0746,0.0786,0.0844,0.0868,0.0897,0.0792,0.071,0.043,0.0223,-0.0053,-0.01,-0.0189,-0.02,-0.0185,-0.0212,-0.0206,-0.02,-0.0261,-0.0262,-0.0262,-0.0262,0,0.0429,0.046,0.0517,0.0626,0.0704,0.0803,0.0891,0.0941,0.0993,0.1002,0.0984,0.0836,0.0683,0.0442,0.0225,0.0024,-0.0133,-0.0201,-0.02,-0.0212,-0.0193,-0.0217,-0.021,-0.0266,-0.0265,-0.0265,-0.0265,0,0.0456,0.0501,0.0578,0.0677,0.0783,0.0889,0.0935,0.1001,0.1053,0.1071,0.1058,0.0888,0.0787,0.0481,0.0283,0.0081,0.0021,-0.0056,-0.0064,-0.0063,0.0008,0.0062,0.0044,0,0,0,0,0,0.0481,0.0537,0.0627,0.0736,0.0843,0.091,0.102,0.1058,0.1104,0.1106,0.1087,0.0944,0.0651,0.0521,0.0318,0.0241,-0.0029,-0.0008,-0.0124,-0.0286,-0.0282,-0.0234,0,0,0,0,0,0,0.0497,0.0581,0.0626,0.0768,0.0852,0.0977,0.1052,0.1088,0.1085,0.1095,0.0946,0.0878,0.0592,0.0771,0.031,0.0248,0.0142,-0.0142,-0.0147,-0.0288,-0.0285,-0.0281,-0.0231,0,0,0,0,0]}]]